Flag for Canada Weather past 2 weeks in Kirkland Lake, Ontario, Canada

Now
-8 °F

Sunny.


Feels Like: -27 °F
Forecast: -14 / -2 °F
Wind: 12 mph from Northwest

Location: Earlton

Current Time: Jan 25, 2015 at 11:58:04 AM

Latest Report: Jan 25, 2015 at 11:00 AM


Visibility: 9 mi

Pressure: 30.08 "Hg

Humidity: 70%

Dew point: -15 °F

Location of Kirkland LakeLocation

Historic Weather in Kirkland Lake — Graph

°F

Kirkland Lake temperature yesterday

Maximum temperature yesterday: 32 °F (at 11:02 AM)
Minimum temperature yesterday: 1 °F (at 9:54 PM)
Average temperature yesterday: 20 °F

Past Weeks' High & Low Weather Summary

 TemperatureHumidityPressure
High32 °F (Jan 24, 11:02 AM)100% (Jan 14, 10:03 PM)30.77 "Hg (Jan 14, 10:03 PM)
Low-26 °F (Jan 13, 5:49 AM)59% (Jan 12, 12:00 PM)29.40 "Hg (Jan 24, 11:02 AM)
Average5 °F83%30.05 "Hg
* Reported Jan 10 10:00 AM — Jan 25 10:00 AM, Kirkland Lake, Weather by CustomWeather, © 2014

Note: Actual official high and low records may vary slightly from our data, if they occured in-between our weather recording intervals... More about our weather records

Advertising

Kirkland Lake weather history for previous 24 hours

 ConditionsComfort  
Time TempWeatherWind HumidityBarometerVisibility
10:00 AM
Jan 25
-9 °FSunny.13 mph70%30.06 "Hg9 mi
9:00 AM-11 °FSunny.12 mph76%30.04 "Hg9 mi
8:00 AM-11 °FSunny.17 mph76%30.00 "Hg9 mi
7:00 AM-9 °FClear.18 mph77%29.96 "Hg9 mi
6:00 AM-9 °FClear.18 mph77%29.92 "Hg9 mi
5:00 AM-8 °FClear.15 mph77%29.88 "Hg9 mi
4:00 AM-6 °FClear.14 mph77%29.84 "Hg9 mi
3:00 AM-6 °FClear.14 mph84%29.80 "Hg9 mi
2:00 AM-2 °FClear.14 mph71%29.76 "Hg9 mi
1:00 AM-2 °FPassing clouds.13 mph77%29.73 "Hg9 mi
12:51 AM-2 °FPassing clouds.14 mph77%29.72 "Hg9 mi
12:00 AM0 °FOvercast.17 mph71%29.72 "Hg9 mi
11:04 PM
Jan 24
1 °FLight snow. Overcast.15 mph71%29.71 "Hg6 mi
10:00 PM1 °FOvercast.17 mph78%29.69 "Hg7 mi
9:54 PM1 °FOvercast.15 mph78%29.69 "Hg6 mi
9:00 PM3 °FLight snow. Overcast.20 mph78%29.67 "Hg3 mi
8:47 PM5 °FLight snow. Overcast.15 mph78%29.67 "Hg5 mi
8:00 PM5 °FLight snow. Overcast.15 mph78%29.64 "Hg9 mi
7:45 PM5 °FLight snow. Overcast.18 mph78%29.63 "Hg7 mi
7:00 PM5 °FPassing clouds.15 mph78%29.62 "Hg9 mi
6:00 PM7 °FClear.15 mph72%29.58 "Hg9 mi
5:00 PM9 °FLight snow. Overcast.15 mph78%29.54 "Hg9 mi
4:00 PM12 °FLight snow. Overcast.22 mph79%29.50 "Hg3 mi
3:51 PM14 °FLight snow. Overcast.21 mph73%29.49 "Hg5 mi
3:02 PM16 °FLight snow. Overcast.17 mph86%29.46 "Hg2 mi
2:02 PM19 °FLight snow. Overcast.18 mph79%29.43 "Hg6 mi
1:00 PM23 °FLight snow. Overcast.18 mph86%29.41 "Hg9 mi
12:56 PM23 °FLight snow. Overcast.21 mph86%29.41 "Hg9 mi
12:00 PM27 °FLight snow. Mostly cloudy.18 mph86%29.40 "Hg1 mi
11:02 AM32 °FLight snow. More clouds than sun.9 mph93%29.40 "Hg5 mi
Weather by CustomWeather, © 2014

See weather overviewHow to use our weather pages